Starlink 32121

operational
NORAD ID: 60264 Int'l Des: 2024-131 Owner: SPXS Country: US Constellation: starlink
LEOCIRCULAR

Starlink 32121について

説明を読み込み中...

リアルタイム位置

3D地球を読み込み中...

次回通過

高度履歴

Altitude vs Time

uPlot chart will show altitude changes over time

軌道要素

1 60264U 24131K 25350.97429091 -.00000723 00000-0 -12283-4 0 9999
2 60264 53.1610 76.7009 0001322 80.0284 280.0866 15.30194085 79108
Epoch: Dec 16, 2025 • Age: 8 hours

現在のステータス

高度 477.6 km
速度 7.63 km/s
衛星直下点 37.72°N, 87.4°W
打ち上げ日 Jul 27, 2024
運用期間 1.3 years
タイプ internet

技術仕様

分類 Payload
質量 730.00 kg
乾燥質量 700.00 kg
総質量 730.00 kg
長さ 0.30 m
直径 4.10 m
スパン 29.00 m
形状 Box + pan
製造者 SPXS
バスタイプ Starlink V2M
フェーズステータス In Orbit
所有者/国 SPXS/US

大規模コンステレーション

Loading constellations...